Location: Cricqueb�uf
(49.4015°N, 0.1468°E)
Time: 22:10:11
(UTC+00:00)

Daily predictions for brighter satellites

Satellite Brightness Start Highest point End
(mag) Time Altitude Azimuth Time Altitude Azimuth Time Altitude Azimuth
Cosmos 1269 Rocket 4.2 16:27:23 10° S 16:32:37 60° ESE 16:37:51 10° NNE
Cosmos 1844 3.9 16:27:10 10° NNW 16:32:55 80° WSW 16:38:32 10° SSE
ATLAS 2AS CENTAUR R/B 3.2 16:26:08 10° SW 16:34:09 87° SE 16:42:11 10° NE
Cosmos 1707 Rocket 4.1 16:31:06 10° SSE 16:35:14 39° E 16:39:25 10° NNE
SL-16 R/B 3.3 16:30:04 10° WSW 16:35:26 42° NW 16:40:49 10° NNE
STARLINK-67 2.6 16:32:59 10° WSW 16:35:44 75° SSE 16:38:31 10° ENE
Cosmos 1634 Rocket 4.1 16:29:39 10° N 16:35:51 89° ENE 16:42:03 10° S
RESURS DK-1 3.6 16:32:34 10° SSE 16:35:56 25° ESE 16:39:19 10° NE
BREEZE-M DEB (TANK) 4.5 16:32:03 10° W 16:36:15 88° S 16:52:29 10° E
BREEZE-M DEB (TANK) 3.1 16:35:03 10° WNW 16:38:47 50° SSW 16:40:58 10° SE
SJ-7 4.5 16:34:53 10° SSE 16:39:01 61° ENE 16:43:08 10° N
Cosmos 2219 Rocket 2.7 16:35:13 10° S 16:40:29 43° ESE 16:45:48 10° NE
Meteor 1-14 Rocket 4.5 16:34:30 10° NNW 16:40:29 84° W 16:46:18 10° S
Meteor 1-26 Rocket 4.4 16:37:05 10° SSW 16:42:56 83° WNW 16:48:39 10° N
Cosmos 1844 Rocket 3.6 16:38:42 10° NW 16:44:09 55° WSW 16:49:34 10° S
NOSS 2 (A) 3.9 16:43:27 10° NW 16:46:00 63° NE 16:48:20 10° SE
Cosmos 1302 Rocket 4.0 16:41:28 10° NNW 16:46:48 80° ENE 16:52:03 10° SSE
Cosmos 371 Rocket 4.4 16:42:38 10° NNW 16:47:23 51° WSW 16:52:06 10° S
Shenzhou-11 Module 4.1 16:47:09 10° SW 16:49:07 18° S 16:51:05 10° SE
Cosmos 1340 2.8 16:46:13 10° NNW 16:50:01 78° W 16:53:48 10° S
Cosmos 1500 3.9 16:46:52 10° N 16:50:17 31° ENE 16:53:40 10° SE
SeaSat 1 4.4 16:49:10 10° NE 16:50:25 11° NNE 16:51:41 10° NNE
Feng Yun 1-1 Rocket 4.3 16:46:33 10° SE 16:51:48 56° ENE 16:57:05 10° N
ERBS 3.9 16:48:41 10° WNW 16:51:49 38° SW 16:54:57 10° SSE
Cosmos 1602 4.0 16:49:18 10° NNW 16:53:11 73° W 16:57:03 10° S
STARLINK-46 3.9 16:50:57 10° SSW 16:53:17 27° SE 16:55:24 12° E
COSMO-SKYMED 1 4.3 16:53:11 10° ENE 16:55:20 14° E 16:57:34 10° ESE
Cosmos 1943 Rocket 3.9 16:52:42 10° N 16:55:24 13° NNE 16:57:51 11° NE
Cosmos 1689 Rocket 2.7 16:54:25 10° N 16:57:26 58° WNW 17:00:25 10° SSW
Cosmos 2251 Rocket 4.4 16:53:52 10° SSE 16:58:29 31° E 17:03:06 10° NE
Cosmos 1536 3.7 16:55:50 10° N 16:59:20 27° ENE 17:02:47 10° SE
YAOGAN 6 4.0 16:57:27 10° ESE 16:59:50 17° ENE 17:02:14 10° NNE
CENTAUR R/B 4.3 16:54:28 10° NW 17:02:10 50° WSW 17:10:25 10° SSE
H-2A R/B 2.8 16:59:05 10° SSE 17:02:40 50° ENE 17:06:16 10° N
IRS-1C Rocket 4.0 16:59:00 10° SSE 17:04:15 74° ENE 17:09:32 10° NNW
USA 215 3.3 16:59:38 11° ENE 17:06:05 84° NNW 17:12:38 10° WSW
YAOGAN 1 4.0 17:03:38 10° ESE 17:06:32 18° ENE 17:09:27 10° NNE
COSMOS 2428 2.7 17:04:29 10° SSW 17:10:06 70° ESE 17:15:48 10° NNE
PSLV R/B 3.9 17:07:06 10° NNE 17:11:17 73° ESE 17:15:24 10° S
CZ-4 R/B 2.5 17:08:54 10° ESE 17:11:50 21° ENE 17:14:45 10° NNE
Meteor 1-5 Rocket 4.1 17:07:06 10° N 17:12:44 76° ENE 17:18:08 10° SSE
Lacrosse 5 rocket 2.1 17:09:54 10° SSW 17:13:55 40° SE 17:16:37 17° ENE
Cosmos 1733 Rocket 3.0 17:13:36 10° N 17:17:59 75° ENE 17:22:23 10° SSE
Envisat 3.2 17:13:50 10° SE 17:18:42 49° ENE 17:23:36 10° N
NOSS 7 (D) 4.3 17:17:42 10° NNW 17:20:32 46° NE 17:23:11 13° ESE
SL-4 R/B 1.9 17:18:50 10° WSW 17:22:33 73° SSE 17:25:06 21° ENE
Genesis I 4.1 17:24:20 10° NNW 17:27:49 29° NE 17:29:11 23° ENE
ISS -3.1 17:24:37 10° WNW 17:27:55 55° SSW 17:31:04 11° SE
Cosmos 1992 Rocket 3.9 17:26:02 10° NNW 17:31:17 76° ENE 17:36:30 10° SSE
FengYun 1-2 T 4.4 17:26:13 10° SE 17:31:28 49° ENE 17:36:46 10° N
Cosmos 2322 4.4 17:28:11 10° SW 17:33:45 52° NW 17:39:20 10° NNE
Cosmos 1666 3.0 17:31:25 10° N 17:35:00 40° ENE 17:38:32 10° SSE
Cosmos 1900 4.2 17:31:53 10° NW 17:36:49 75° NE 17:41:41 10° SE
CZ-4B R/B 4.3 17:35:04 10° NNW 17:37:09 15° WNW 17:39:15 10° W
Cosmos 1315 Rocket 4.3 17:34:26 10° SW 17:38:07 36° WNW 17:41:54 10° N
Meteor 2-6 Rocket 4.5 17:34:34 10° SSW 17:39:55 66° WNW 17:45:21 10° N
Cosmos 2278 Rocket 2.3 17:34:44 10° NNW 17:40:26 78° WSW 17:46:04 10° SSE
COBE Rocket 3.7 17:36:53 10° NNE 17:41:33 90° ENE 17:46:14 10° SSW
USA 267 4.4 17:35:42 10° SSE 17:41:53 44° SW 17:48:07 10° WNW
COSMOS 2455 4.5 17:38:53 10° W 17:43:48 25° NNW 17:48:44 10° NNE
SMAP 3.8 17:39:20 10° S 17:43:54 56° W 17:48:30 10° NNW
SKYMED 2 4.1 17:41:51 24° NE 17:43:54 38° E 17:47:57 10° SSE
Cosmos 1782 Rocket 4.0 17:42:29 10° N 17:46:31 35° ENE 17:50:31 10° SE
NOSS 3-4 (A) 4.0 17:41:32 10° WSW 17:47:29 54° NW 17:52:28 17° NE
NOSS 3-4 (C) 4.0 17:41:38 10° WSW 17:47:35 54° NW 17:52:34 17° NE
Cosmos 2360 Rocket 3.8 17:42:56 10° WSW 17:47:51 29° NW 17:52:49 10° NNE
Cosmos 921 Rocket 3.5 17:45:06 10° N 17:49:02 35° ENE 17:49:41 33° E
NOSS 0 Rocket 3.9 17:42:56 10° SSW 17:49:06 71° ESE 17:53:49 18° NE
Cosmos 2369 Rocket 3.4 17:50:17 10° N 17:54:28 22° NE 17:54:28 22° NE
SL-16 R/B 3.1 17:52:04 10° SSE 17:56:47 28° ESE 17:57:01 28° E
Cosmos 1862 Rocket 3.8 17:52:41 10° SSW 17:57:01 72° W 18:01:26 10° N
Cosmos 1092 Rocket 4.0 17:51:48 10° S 17:58:01 64° E 18:04:14 10° NNE
Cosmos 2242 Rocket 3.5 17:54:35 10° S 17:59:08 78° E 18:03:10 14° NNE
Cosmos 1703 Rocket 3.8 17:55:27 10° SSE 17:59:44 47° E 18:01:05 36° NE
Cosmos 2333 Rocket 2.9 17:56:12 10° SW 18:01:49 53° NW 18:06:45 14° NNE
Ariane Rocket 4.1 18:03:29 25° NNE 18:03:29 25° NNE 18:06:19 10° N
Okean-O 3.3 18:02:46 10° S 18:07:07 56° W 18:11:30 10° NNW
Cosmos 292 Rocket 3.7 18:02:32 10° NNW 18:07:27 88° ENE 18:12:19 10° SSE
Cosmos 1812 3.7 18:03:59 10° SSW 18:07:44 48° WNW 18:11:26 10° N
Cosmos 2237 Rocket 2.1 18:02:50 10° SSW 18:08:32 80° ESE 18:11:47 27° NNE
BREEZE-M R/B 2.4 18:04:01 10° W 18:09:11 85° N 18:09:34 68° E
STARLINK-67 4.0 18:07:36 10° WNW 18:09:35 32° NW 18:09:35 32° NW
RESURS DK-1 3.5 18:09:52 10° SW 18:13:46 41° NW 18:15:52 23° N
Cosmos 2322 Rocket 4.5 18:10:56 10° WNW 18:14:04 15° NNW 18:17:13 10° N
Meteor 1-27 Rocket 4.2 18:09:35 10° SSW 18:15:18 65° WNW 18:21:09 10° N
Shenzhou-11 Module 4.3 18:21:43 10° SW 18:23:06 17° SSW 18:23:06 17° SSW
Cosmos 2219 Rocket 3.4 18:19:18 10° WSW 18:24:32 38° NW 18:28:41 16° NNE
ATLAS 2AS CENTAUR R/B 4.0 18:18:36 10° W 18:26:03 40° NNW 18:30:48 21° NNE
SeaSat 1 3.5 18:28:08 30° NNE 18:28:08 30° NNE 18:31:16 10° NNW
S3M 4.1 18:20:49 10° N 18:26:50 47° ENE 18:27:13 46° E
Cosmos 1908 Rocket 4.4 18:25:48 10° NNW 18:30:05 50° W 18:34:18 10° S
COSMO-SKYMED 1 2.7 18:30:24 38° N 18:32:01 73° WNW 18:36:20 10° SSW
YAOGAN 6 3.8 18:29:41 10° S 18:33:03 41° W 18:36:28 10° NNW
Exosat Rocket 4.4 18:33:51 10° SW 18:38:50 45° NW 18:41:34 24° N
Cosmos 1980 4.1 18:33:36 10° SW 18:39:11 62° WNW 18:41:50 31° NNE
USA 116 4.3 18:37:19 40° NNE 18:39:22 85° ESE 18:44:35 10° SSW
Cosmos 1441 Rocket 3.8 18:36:03 10° NNW 18:39:49 55° W 18:43:31 10° S
Meteor 1-18 Rocket 4.1 18:34:33 10° S 18:40:14 65° E 18:40:29 64° E
Cosmos 1943 Rocket 2.9 18:35:20 10° NNW 18:39:24 37° NNE 18:39:24 37° NNE
Cosmos 1553 Rocket 3.9 18:34:49 10° N 18:41:11 75° ENE 18:47:35 10° SSE
Cosmos 2297 3.7 18:36:17 10° NNW 18:42:01 80° WSW 18:45:24 25° SSE
YAOGAN 1 2.9 18:37:55 10° S 18:42:12 62° W 18:46:31 10° NNW
Cosmos 1428 Rocket 4.3 18:36:51 10° S 18:43:00 85° E 18:48:30 14° N
CSL-04 Rocket 3.9 18:40:59 10° S 18:46:13 66° WSW 18:51:31 10° NNW
CZ-4 R/B 2.6 18:42:56 10° S 18:46:39 40° W 18:50:20 10° NNW
USA 215 3.7 18:46:59 40° NNE 18:48:48 50° N 18:55:03 10° W
Lacrosse 5 rocket 2.3 18:48:58 10° WSW 18:52:16 43° WNW 18:52:16 43° WNW
COSMOS 2428 4.4 18:50:07 10° WSW 18:54:54 27° NW 18:58:08 17° N
Okean 1-7 3.6 18:52:02 10° SSW 18:56:06 55° W 18:56:06 55° W
Cosmos 614 Rocket 4.4 18:53:56 10° SSW 18:57:41 50° SSW 18:57:41 50° SSW
Cosmos 2026 Rocket 4.2 18:54:04 10° SSW 19:00:05 66° WNW 19:05:53 11° N
Cosmos 489 Rocket 4.4 18:55:33 10° NNW 19:01:57 87° ENE 19:02:47 70° SSE
SL-4 R/B 3.5 18:58:26 10° W 19:00:43 33° WNW 19:00:43 33° WNW
ISS -0.6 19:02:40 10° WSW 19:04:01 12° SW 19:04:01 12° SW
Cosmos 407 Rocket 4.1 19:04:11 10° SSW 19:07:53 48° SSW 19:07:53 48° SSW
Cosmos 1867 3.9 19:06:18 10° NW 19:10:44 59° NW 19:10:44 59° NW
Meteor 2-9 Rocket 4.4 19:07:10 10° NNW 19:12:27 71° NW 19:12:27 71° NW
NOSS 3-1 (C) 4.1 19:20:25 10° NW 19:26:44 60° N 19:26:44 60° N
USA 229 DEB 4.1 19:28:04 10° NW 19:33:50 57° N 19:33:50 57° N
USA 229 4.1 19:28:10 10° NW 19:33:54 56° N 19:33:54 56° N
Cosmos 2369 Rocket 3.7 19:33:46 10° NNW 19:36:16 28° NNW 19:36:16 28° NNW
NOSS 3-1 (A) 4.5 19:33:26 10° NW 19:38:44 47° N 19:38:44 47° N
SL-16 R/B 3.2 19:34:58 10° SW 19:38:57 42° WSW 19:38:57 42° WSW
Cosmos 2237 Rocket 4.0 19:48:38 10° W 19:53:16 25° NW 19:53:38 24° NW
Cosmos 2344 4.2 19:49:46 10° NW 19:59:11 83° NE 19:59:36 82° E
ATLAS 2AS CENTAUR R/B 4.4 20:12:31 10° WNW 20:18:13 28° NNW 20:18:13 28° NNW
Cosmos 1943 Rocket 4.5 20:19:17 10° NW 20:20:57 19° NW 20:20:57 19° NW
